Regional Weather Roundup
Issued by NWS State College, PA

Home | Current Version | Previous Version | Graphics & Text | Print | Product List | Glossary On
Versions: 1 2 3 4 5 6 7 8 9 10 11 12 13 14 15 16 17 18 19 20 21 22 23 24 25 26 27 28 29 30 31 32 33 34 35 36 37 38 39 40 41 42 43 44 45 46 47 48 49 50
000
ASUS41 KCTP 171603
RWRCTP

REGIONAL WEATHER ROUNDUP
NATIONAL WEATHER SERVICE STATE COLLEGE PA
1200 PM EDT WED SEP 17 2014

Note: "fair" indicates few or no clouds below 12,000 feet with no
significant weather and/or obstructions to visibility.

* = STATION THAT DOES NOT REPORT PRECIPITATION /E.G. RAIN...SNOW...ETC/
    THUNDER OR FOG.

PAZ002>004-007>009-013>016-020>023-029>032-171700-
WESTERN PENNSYLVANIA

CITY           SKY/WX    TMP DP  RH WIND       PRES   REMARKS
ERIE           MOSUNNY   64  46  52 S5        30.03F
MEADVILLE      PTSUNNY   61  45  55 MISG      30.04F
FRANKLIN*      SUNNY     61  43  51 W5        30.06F
NEW CASTLE     FAIR      65  46  50 CALM      30.05F
BEAVER COUNTY  PTSUNNY   63  45  51 W3        30.05F
BUTLER*        MOSUNNY   64  46  52 SW5       30.06F
PITTSBURGH INT PTSUNNY   63  47  55 S3        30.05F
PITTSBURGH     MOSUNNY   62  49  62 E5        30.04F
INDIANA*       MOSUNNY   64  50  59 VRB3      30.09F
LATROBE        PTSUNNY   64  54  68 SW9       30.06F
WASHINGTON CO* PTSUNNY   63  52  67 CALM      30.05F
$$

PAZ004>006-010>012-017>019-024>028-033>037-041-042-045-046-049>053-171700-
CENTRAL PENNSYLVANIA

CITY           SKY/WX    TMP DP  RH WIND       PRES   REMARKS
BRADFORD       SUNNY     59  39  47 S7        30.05F
DUBOIS         PTSUNNY   61  46  57 SW8       30.05F
CLEARFIELD     SUNNY     62  47  57 VRB6      30.06F
JOHNSTOWN      MOSUNNY   60  44  55 SW5       30.06F
ALTOONA        MOSUNNY   61  48  62 SW6       30.06F
STATE COLLEGE  MOSUNNY   63  45  51 CALM      30.06F
WILLIAMSPORT   SUNNY     60  49  66 CALM      30.05F
SELINSGROVE    SUNNY     66  47  50 CALM      30.06F
FT INDIANTOWN  MOSUNNY   68  46  45 E6        30.05F
CAPITAL CITY   MOSUNNY   69  44  40 VRB5      30.05F
HARRISBURG     MOSUNNY   71  49  45 SW3       30.05F
YORK           PTSUNNY   68  48  48 SE3       30.05F
$$

PAZ038>040-043-044-047-048-054-055-060>062-067>071-171700-
EASTERN PENNSYLVANIA

CITY           SKY/WX    TMP DP  RH WIND       PRES   REMARKS
SCRANTON       SUNNY     63  47  55 SW7       30.06F
MOUNT POCONO   MOSUNNY   60  40  47 W5        30.06F
ALLENTOWN      MOSUNNY   68  45  43 CALM      30.06F
QUAKERTOWN*    PTSUNNY   66  46  48 CALM      30.06F
READING        MOSUNNY   69  49  48 MISG      30.04F
LANCASTER      PTSUNNY   66  48  52 VRB3      30.06F
COATESVILLE    PTSUNNY   66  50  55 CALM      30.07F
POTTSTOWN      SUNNY     66  46  48 W5        30.07F
BLUE BELL      MOSUNNY   70  48  46 CALM      30.05F
DOYLESTOWN     PTSUNNY   66  46  48 S3        30.05F
WILLOW GROVE   NOT AVBL
NORTH PHILA    SUNNY     71  42  35 VRB3      30.06F
PHILADELPHIA   MOSUNNY   71  47  42 VRB5      30.05F
$$



USA.gov is the U.S. government's official web portal to all federal, state and local government web resources and services.